Miscellaneous Local Product
Issued by NWS North Platte, NE

Home | Current Version | Previous Version | Text Only | Print | Product List | Glossary On
Versions: 1 2 3 4 5 6 7 8 9 10 11 12 13 14 15 16 17 18 19 20 21 22 23 24 25 26 27 28 29 30 31 32 33 34 35 36 37 38 39 40 41 42 43 44 45 46 47 48 49 50
224
AXUS43 KLBF 012110
MISLBF


WESTERN AND NORTH CENTRAL NEBRASKA HOURLY WEATHER ROUNDUP
NATIONAL WEATHER SERVICE NORTH PLATTE NE
400 PM CDT SUN MAY 01 2016

NOTE: "FAIR" INDICATES FEW OR NO CLOUDS BELOW 12,000 FEET WITH NO
SIGNIFICANT WEATHER AND/OR OBSTRUCTIONS TO VISIBILITY.

NOTE: STATIONS NOT REPORTING VARIABLES SUCH AS SKY/WEATHER OR
PRESSURE ARE PROVIDED BY RAWS AND APRS NETWORKS AND ARE NOT UNDER
NATIONAL WEATHER SERVICE QUALITY CONTROL.

...OBSERVATIONS IN AND NEAR THE EASTERN PANHANDLE OF NEBRASKA...

CITY           SKY/WX    TMP DP  RH WIND       PRES   REMARKS
PINE RIDGE     MOSUNNY   56  30  37 N12       30.25F
CHADRON        MOSUNNY   56  31  38 N7G17     30.26F
ALLIANCE       SUNNY     45  29  53 NW8       30.24F
SIDNEY         SUNNY     44  27  51 N12       30.26F
CRESCENT LAKE    N/A     44  34  68 NW7         N/A
BIG SPRINGS      N/A     47  40  77 NW9         N/A
$$

...OBSERVATIONS IN NORTHERN NEBRASKA AND FAR SOUTHERN SOUTH DAKOTA...

CITY           SKY/WX    TMP DP  RH WIND       PRES   REMARKS
WINNER         FAIR      59  34  39 N15G24    30.22F
VALENTINE      PTSUNNY   55  30  38 N13G22    30.23F
THEDFORD       PTSUNNY   53  33  47 N17G24    30.22F
AINSWORTH      MOSUNNY   55  33  44 N18G26    30.22S
O`NEILL        PTSUNNY   53  37  54 N7        30.19F
ORD            PTSUNNY   53  39  59 N17       30.18F
BROKEN BOW     CLOUDY    53  38  56 NE14      30.17F
VALENTINE NWR    N/A     54  33  44 N13G23      N/A
BUTTE            N/A     52  38  58 N12G20      N/A
HALSEY           N/A     54  30  39 N9G21       N/A
CHAMBERS         N/A     55  38  53 N5G14       N/A
EWING            N/A     51  43  75 N7G16       N/A
$$

...OBSERVATIONS IN SOUTHWEST NEBRASKA AND FAR NORTHEAST COLORADO...

CITY           SKY/WX    TMP DP  RH WIND       PRES   REMARKS
HOLYOKE        FAIR      46  34  61 N20       30.24F
IMPERIAL       MOSUNNY   52  34  50 N25G33    30.21F
OGALLALA       PTSUNNY   50  31  48 N18G26    30.25F
NORTH PLATTE   PTSUNNY   51  35  54 N13G29    30.19F
MCCOOK         MOSUNNY   56  36  47 N23G30    30.16F
LEXINGTON      CLOUDY    50  38  64 NE12      30.18F
PAXTON           N/A     49  38  66 N14         N/A
STAPLETON        N/A     53  35  51 NE3G12      N/A
GOTHENBURG       N/A     52  32  47 N13         N/A
CALLAWAY         N/A     51  39  64 NE12        N/A
$$

...OBSERVATIONS IN CENTRAL LINCOLN COUNTY AREA...

CITY           SKY/WX    TMP DP  RH WIND       PRES   REMARKS
N.P. AIRPORT   PTSUNNY   51  35  54 N13G29    30.19F
N.P. DOWNTOWN    N/A     51  34  53 N14G22      N/A
N.P. HILLCREST   N/A     52  35  52 N20G26      N/A
$$

...SOME OBSERVATIONS FROM AROUND THE REGION...

CITY           SKY/WX    TMP DP  RH WIND       PRES   REMARKS
DENVER         CLOUDY    40  28  62 W9        30.28F WCI  34
LARAMIE        CLOUDY    35  21  56 VRB5      30.24F WCI  31
CHEYENNE       PTSUNNY   38  23  55 N9        30.27F WCI  31
SCOTTSBLUFF    PTSUNNY   51  29  42 N15G22    30.27F
RAPID CITY     SUNNY     56  31  38 N10       30.26F
BISMARCK       SUNNY     64  28  25 VRB7      30.23F
PIERRE         SUNNY     59  31  34 VRB3      30.22F
SIOUX FALLS    PTSUNNY   55  38  52 NE10      30.16F
OMAHA          CLOUDY    49  43  80 N13       30.11F
GRAND ISLAND   CLOUDY    45  39  79 N18       30.18F
KANSAS CITY    LGT RAIN  54  50  86 NW7       30.04R
WICHITA        CLOUDY    54  42  64 N17       30.11R
OKLAHOMA CITY  MOSUNNY   64  45  49 N18G25    30.07S
DALLAS         MOSUNNY   74  49  41 N15G24    29.96F
AMARILLO       CLOUDY    43  35  73 N25G31    30.18F
DODGE CITY     CLOUDY    45  37  73 N12       30.20R
HAYS           CLOUDY    48  34  57 N20G28    30.18R
GOODLAND       CLOUDY    49  31  49 N17G26    30.21R
$$




USA.gov is the U.S. government's official web portal to all federal, state and local government web resources and services.